STARLINK-3096, 49131

Orbit data source: Space-Track

STARLINK-3096, 49131 is a payload satellite owned by SpaceX/Seattle (US) in LEO that was launched on Tue, 14 Sep 2021 UTC via an FALCON 9 launch vehicle from the Air Force Western Test Range (AFWTR). Payload-class satellites include a variety of spacecraft equipped with specific instruments for various scientific and technological missions. These include communications satellites like Starlink; space stations such as the ISS; scientific satellites like the Hubble; Earth observation satellites from companies like Planet Labs, Umbra, and HawkEye 360; GPS; miniature CubeSats for education and research; and military/defense satellites.

Loading next visibility...
Identifier
49131, 2021-082B
Orbit
LEO
Country
Flag of USUS
Related business
Manufacturer
SpaceX/Seattle
Mission
Operational Commercial Communications
Bus & Motor
STARLINK, Unknown motor
Mass
297 kg wet, ~275 kg dry
Launch date (UTC)
2021-09-14 (4 years ago)
Launch vehicle
FALCON 9
Launch site
Air Force Western Test Range (AFWTR)
Object type
Payload
Rocket body
Debris
Shape & HBR
Box + 1 Pan, 10.1 m
Radar Cross Section
13.562 m², Large (>1 m²)

Expand to show TLE details & history
Last TLE update: 17 hours ago

TLE from 17 hours ago
0 STARLINK-3096
1 49131U 21082B   25286.35337891  .00000018  00000-0  92913-5 0  9991
2 49131  69.9987 265.9287 0002857 265.6810  94.4022 14.98330412224898
Epoch: 2025-10-13T08:28Z
TLE epoch observation values (Epoch: 2025-10-13T08:28:51.937Z)
Latitude
-0.00011°
Longitude
116.55488°
Altitude
574.631 km
Speed
7.574 km/s
True Right ascension
17h 43m 42s
True Declination
0° 00' 00"
Sunlit
Object was in daylight at epoch
Visualization orbit readout
Latitude
Unknown
Longitude
Unknown
Altitude
Unknown
Speed
Unknown
Apparent Right ascension
Unknown
Apparent Declination
Unknown
Sunlit
N/A
Visualization observer readout
Local Sidereal Time
19:59:14
Azimuth
Unknown
Elevation
Unknown
Doppler factor
Unknown
Orbital elements
Apogee altitude
571.988 km
Perigee altitude
568.018 km
Semi-major axis
6,948.14 km
Eccentricity
0.00029
Inclination
69.9987°
RAAN
265.9287°
Arg. of periapsis
265.681°
True anomaly
94.43484°
Mean anomaly
94.4022°
Eccentric anomaly
94.41852°
Mean motion
3.74749 °/min
Orbital period
96.06 mins
BSTAR
0.0000092913
Loading maneuver chart data...
Computing Atmospheric mass density...
Loading historical data...
Loading historical data...
Loading historical data...
Loading historical data...
Loading historical data...
Loading historical data...
Loading historical data...

Documentation

Showing up to 5 results
|